Theta_e
282 282 281 282 282 283 283 285 285 286 286 287 287 288 288 288 289 289 289 290 290 291 292 292 292 294 293 294 296 297 297 297 293 294 294 296 298 300 300 299 299 302 306
281 281 281 281 281 281 283 284 285 285 286 287 287 287 287 287 288 288 288 288 288 288 290 290 291 294 293 295 296 296 297 297 296 294 291 290 291 288 293 296 294 293 295
280 280 280 280 280 282 283 284 284 285 285 286 286 285 286 286 286 287 287 288 288 289 289 290 290 291 292 294 295 296 297 298 298 296 294 287 287 288 287 288 288 286 290
279 279 278 278 280 282 283 283 283 284 284 284 285 285 285 286 286 286 287 288 287 287 288 289 290 290 291 292 293 295 297 297 298 297 295 287 287 286 285 287 287 286 286
273 271 274 276 280 282 282 283 284 284 284 284 284 285 286 286 286 286 287 287 286 285 286 287 287 287 287 288 290 294 298 298 298 297 291 287 286 286 288 287 285 285 285
268 270 269 275 279 277 281 282 283 283 283 283 282 281 282 284 287 288 286 285 285 284 283 284 286 285 286 288 290 292 294 294 295 295 293 292 289 288 287 288 286 286 284
266 266 268 280 279 277 280 282 282 282 282 278 279 279 279 282 288 287 286 283 283 283 283 283 283 284 284 285 286 286 286 289 291 294 294 292 290 289 289 287 287 284 284
264 265 266 280 280 280 281 281 281 282 281 277 278 279 279 280 287 286 284 281 281 281 282 283 283 283 284 284 283 282 282 282 284 287 289 292 294 292 293 290 289 286 285
268 268 268 279 279 280 280 280 281 281 275 275 279 278 278 278 286 285 283 280 280 279 280 282 283 283 284 284 281 280 279 279 282 285 288 292 293 291 290 288 286 286 282
270 270 270 270 279 280 280 280 280 279 274 278 278 276 277 277 283 285 283 281 278 279 279 280 284 283 285 283 279 278 276 277 277 278 278 279 281 285 286 289 289 286 282
274 273 272 272 275 280 280 280 278 279 279 270 273 272 273 276 280 283 284 280 279 279 278 279 281 284 283 283 282 279 278 277 278 277 277 277 277 277 278 281 282 284 282
275 276 275 275 277 277 276 271 271 272 272 269 270 273 274 275 281 282 282 282 281 279 278 279 279 281 282 282 280 281 280 278 276 275 275 274 274 275 276 277 278 278 280
274 274 273 274 276 277 274 274 273 272 271 272 273 271 272 275 275 279 280 280 280 277 279 280 280 279 278 276 279 279 276 275 275 273 273 273 275 276 278 279 279 279 277
273 272 272 273 273 272 276 275 273 271 271 273 272 271 270 273 274 274 275 274 276 274 274 274 276 276 277 275 273 273 273 273 273 272 273 274 275 275 274 277 276 276 275
272 272 273 273 273 273 274 274 275 274 275 278 277 270 268 269 276 279 277 273 271 274 265 267 269 269 269 269 269 270 270 271 271 271 271 272 272 272 272 274 274 274 272
272 272 273 273 272 273 274 274 281 281 282 281 281 276 277 279 280 281 281 280 278 276 266 265 266 266 266 266 265 266 266 267 268 270 270 269 269 269 270 271 271 271 270
273 273 273 273 273 273 273 274 274 277 281 280 280 280 280 279 279 279 279 279 277 272 265 263 264 264 264 264 264 263 263 263 262 265 265 266 268 268 269 268 268 268 266
272 272 273 274 274 274 274 273 271 271 270 266 274 275 277 278 278 278 278 271 264 264 258 257 258 259 261 261 261 260 261 262 262 262 262 262 263 264 264 263 263 262 263
272 273 274 274 274 274 274 272 271 267 265 261 262 268 266 276 277 278 276 261 262 258 255 257 256 256 257 257 257 258 257 257 258 260 260 260 260 263 261 260 260 259 261
272 273 273 274 274 273 273 273 271 269 266 265 262 261 258 260 259 258 258 256 260 258 256 257 254 253 254 255 255 255 258 258 258 260 258 259 258 260 259 258 257 259 258
272 273 273 274 274 274 274 273 273 270 269 267 266 263 269 262 259 258 257 256 260 259 257 257 255 253 252 253 253 256 257 256 254 257 258 257 257 258 258 258 258 257 258
272 273 273 274 274 274 274 274 272 271 268 267 261 261 278 259 260 259 256 256 255 256 256 257 255 254 255 256 256 257 257 255 253 254 256 257 258 257 256 257 256 255 255
272 273 273 274 274 273 273 272 271 271 269 267 265 264 260 261 261 260 259 255 254 255 253 256 255 252 250 251 252 256 258 257 257 255 257 257 256 256 257 256 256 254 252
272 273 273 274 273 273 272 271 272 270 269 267 266 265 263 261 260 260 259 256 254 251 252 255 254 255 252 251 250 251 252 253 253 255 257 257 255 255 254 253 252 251 252
273 273 273 273 273 272 272 272 272 271 270 268 267 265 262 261 260 259 258 258 256 255 253 253 253 255 255 253 252 252 256 258 254 254 255 255 255 253 253 253 250 247 248
273 273 273 274 273 273 272 272 271 271 270 269 267 266 264 263 262 260 258 257 256 255 253 252 253 254 254 253 253 254 258 260 256 256 255 256 254 251 252 251 248 249 249
Wind_Speed
3 3 4 5 5 5 5 7 8 9 10 10 11 11 11 11 11 10 11 12 13 13 13 15 16 14 11 11 11 11 12 11 14 12 6 2 3 4 0 3 4 4 2
3 2 4 5 5 5 6 8 8 9 8 10 9 9 10 10 9 10 11 11 12 13 14 15 15 11 15 13 10 16 14 13 13 16 6 3 5 1 3 2 3 4 3
1 2 4 4 5 6 7 8 8 9 8 9 8 9 10 10 10 10 11 12 12 12 13 13 14 14 15 12 13 14 11 12 12 10 11 1 1 1 2 1 1 3 4
2 3 4 4 5 6 7 7 8 8 8 8 8 10 10 9 9 10 11 11 12 13 12 12 13 14 14 14 13 14 14 12 11 11 9 3 2 1 0 2 2 2 2
3 3 4 4 5 5 6 7 7 7 7 8 9 9 9 8 7 9 9 9 10 10 9 9 9 11 16 14 8 10 11 11 10 6 5 3 3 3 4 3 3 2 4
4 5 3 3 4 5 5 6 6 6 6 7 7 8 10 7 16 14 10 6 7 7 8 8 8 8 10 13 11 8 8 8 8 5 3 9 8 4 4 5 5 4 3
4 4 4 4 4 4 3 5 5 5 6 4 6 8 9 11 15 11 9 5 6 7 8 7 6 5 7 5 5 6 8 9 5 2 6 6 8 9 8 5 4 3 3
5 4 4 4 3 3 2 4 4 4 4 3 5 7 8 9 15 10 9 6 6 8 9 9 7 7 7 4 1 2 5 8 12 5 3 5 4 8 8 6 6 9 9
7 7 6 6 4 4 2 3 4 4 4 3 3 6 8 9 16 11 7 5 6 7 9 9 10 7 11 8 4 3 4 6 8 16 19 18 12 14 13 12 10 11 5
7 8 6 5 6 5 4 3 5 3 3 3 4 3 6 8 14 12 8 5 5 5 7 9 16 13 17 14 6 5 6 6 6 7 6 11 15 14 16 5 9 10 7
6 6 6 5 6 5 4 3 5 3 4 3 4 4 4 5 8 12 11 4 4 4 5 6 7 19 19 20 15 8 7 5 8 7 7 9 10 11 8 8 9 5 3
6 6 6 6 5 4 4 3 3 1 1 3 3 4 3 4 8 10 11 11 10 5 6 6 7 18 22 21 14 19 17 11 6 8 9 9 9 8 7 9 12 12 9
7 7 6 5 5 4 4 3 2 1 2 3 1 2 3 4 4 10 10 11 11 6 5 10 17 17 18 15 24 22 14 8 8 9 9 8 7 5 7 9 11 15 17
8 7 6 6 5 3 2 3 3 2 2 1 1 1 2 3 3 2 3 3 8 7 7 6 12 15 19 14 11 12 10 9 8 8 8 7 7 9 11 7 9 9 11
7 6 7 6 6 4 3 3 3 3 3 2 1 2 1 3 3 5 4 1 2 3 4 3 6 7 8 8 8 9 8 8 8 7 7 7 8 8 8 6 8 10 11
8 7 7 6 5 4 5 3 7 6 6 5 7 4 1 3 5 7 9 9 11 8 5 4 5 6 6 6 6 6 7 8 7 6 7 7 7 7 8 9 9 9 10
11 9 7 7 7 7 6 6 7 2 6 3 4 2 2 2 3 5 10 14 11 8 5 4 4 4 4 5 5 5 4 5 4 6 6 6 7 8 9 9 8 9 9
10 10 9 9 9 8 8 6 5 7 5 1 3 0 2 0 0 3 8 7 5 7 4 3 3 3 3 3 3 3 3 4 6 6 7 6 6 7 8 8 7 7 7
10 9 9 8 8 9 8 7 6 4 4 3 0 2 4 2 2 4 3 3 4 3 2 3 2 2 2 2 2 3 3 3 3 5 5 6 5 7 8 7 7 8 7
10 12 12 9 9 9 8 8 7 6 5 5 4 4 1 2 1 2 2 2 4 3 3 3 2 2 2 3 2 3 4 4 4 5 5 5 5 5 7 6 5 7 6
8 9 14 9 9 10 9 10 9 7 7 6 5 5 11 4 4 3 3 3 4 4 4 3 3 3 2 2 3 3 4 3 3 3 5 4 4 7 5 6 6 6 6
9 10 11 12 10 10 10 9 8 8 7 6 3 4 13 3 4 4 3 3 3 4 3 5 4 3 4 4 4 4 4 4 2 3 4 4 6 6 5 6 6 5 5
9 11 11 10 10 11 9 8 9 9 7 6 5 4 2 4 5 5 5 4 3 4 3 4 4 3 2 3 3 4 6 5 5 4 6 5 5 5 5 6 6 5 4
11 12 12 11 11 11 11 10 9 10 9 7 7 6 5 4 5 6 5 5 4 3 3 4 4 5 4 3 3 3 3 4 3 4 6 6 6 6 5 5 4 5 5
11 12 12 12 11 12 11 10 10 9 9 8 7 6 5 5 5 5 5 5 5 5 4 4 4 6 7 7 5 6 5 7 5 5 4 6 7 7 5 5 5 4 5
11 12 11 11 11 11 11 11 10 10 9 8 8 7 8 8 7 6 6 6 6 4 5 4 6 8 8 5 5 5 6 7 6 7 5 6 7 5 4 6 6 5 6
Wind_Direction
238 254 288 292 293 291 292 310 305 297 293 292 286 285 281 276 275 272 272 274 269 266 262 258 259 258 264 262 258 256 250 245 258 263 252 242 285 289 43 19 13 47 40
226 290 307 314 311 306 314 308 300 297 298 290 285 288 280 279 280 279 281 281 276 274 271 271 267 263 254 252 258 261 244 246 251 253 252 235 228 4 330 74 351 40 53
235 313 313 308 314 321 310 307 304 308 304 299 302 293 290 287 286 281 277 272 266 268 269 268 270 268 261 255 255 262 241 240 239 242 251 193 179 239 86 35 78 24 23
232 286 292 310 308 317 311 308 305 305 303 309 305 297 294 293 292 283 278 278 279 277 272 274 272 269 266 264 267 268 245 237 233 236 233 169 154 197 136 144 95 48 42
205 253 270 290 290 323 305 302 301 304 311 311 310 314 309 302 299 298 294 292 287 289 286 276 269 264 265 262 272 253 271 234 224 229 190 145 164 177 185 167 98 75 54
203 239 259 279 303 302 308 308 306 312 313 317 332 332 325 318 309 323 336 315 311 309 306 299 290 286 282 273 287 275 246 246 246 227 248 220 196 177 143 156 132 163 124
206 238 249 278 303 305 303 300 306 311 312 324 338 338 330 320 336 345 358 331 341 336 331 319 312 304 301 284 281 347 19 27 3 253 209 210 184 172 145 141 146 121 118
219 231 234 245 271 293 295 306 306 292 320 323 340 340 334 326 348 10 6 339 345 346 341 346 333 333 334 327 330 32 13 20 19 335 241 235 206 159 156 147 127 111 95
225 228 221 223 244 270 275 296 313 322 352 314 327 341 330 325 351 18 11 349 350 348 347 346 1 4 16 24 34 49 45 14 3 22 40 61 91 114 127 121 128 133 91
218 222 209 206 228 251 257 273 293 319 292 317 331 316 327 326 343 22 22 344 337 345 352 353 22 27 38 46 44 41 45 21 22 17 6 34 46 57 48 104 144 136 127
200 199 204 196 214 231 238 258 271 273 292 325 316 304 306 313 331 20 29 6 353 359 6 5 13 43 43 43 47 49 55 29 38 43 42 44 44 40 35 46 62 80 83
190 188 192 193 205 216 212 240 245 219 343 314 327 329 320 322 356 13 30 40 32 21 22 19 27 37 45 50 47 50 51 47 49 55 46 48 52 48 48 59 66 72 52
179 188 185 185 201 192 200 207 209 163 107 303 336 338 323 333 332 25 31 37 39 36 35 45 45 46 46 35 47 47 39 39 50 57 57 47 43 46 68 75 75 79 64
189 185 178 184 194 200 207 194 165 167 134 264 334 359 328 319 320 328 359 2 39 42 29 26 46 45 48 41 34 32 36 34 43 52 54 46 42 42 40 32 67 75 71
186 182 188 179 191 187 191 186 179 203 174 182 207 168 114 329 342 31 48 55 39 71 41 27 34 28 30 25 28 27 27 33 41 37 46 52 53 55 46 41 55 63 80
187 186 189 178 181 178 167 203 186 171 149 174 152 143 317 81 41 51 63 67 69 72 51 46 45 34 37 23 25 29 32 31 27 37 53 65 70 69 71 64 68 72 80
197 187 178 179 175 180 176 174 168 158 151 134 206 201 135 117 83 74 74 72 73 75 74 47 56 40 32 33 27 31 35 10 358 49 54 47 57 64 74 75 74 81 74
196 184 181 185 180 180 182 178 169 173 167 198 352 44 303 205 277 129 122 73 48 42 64 83 78 42 29 50 37 21 17 32 42 48 53 46 51 67 67 61 59 84 87
188 192 187 180 183 179 180 170 176 174 176 167 91 284 338 238 56 89 106 107 124 100 87 84 92 82 72 64 50 51 35 47 50 66 58 61 44 81 78 75 75 60 66
196 195 187 181 176 176 179 180 178 186 184 184 180 197 175 42 40 344 36 106 114 116 133 126 134 127 112 106 85 67 63 45 50 76 68 74 63 75 90 86 72 91 76
188 188 185 181 181 183 182 189 184 182 191 190 199 182 173 160 170 163 167 177 151 148 155 150 151 144 130 115 99 88 84 72 60 76 90 79 74 91 84 85 89 89 101
184 185 186 190 183 183 184 182 179 180 188 184 196 207 183 131 150 160 182 186 178 162 156 148 155 163 161 152 148 126 117 115 87 77 87 90 97 94 88 93 89 82 80
185 184 188 190 185 175 173 178 179 180 181 181 164 179 155 156 161 167 176 174 159 156 160 143 143 138 143 143 162 150 145 163 164 138 122 113 107 106 108 112 116 98 94
188 188 189 188 182 178 178 181 186 181 173 173 175 173 174 167 173 177 173 167 158 155 156 151 154 151 137 121 136 138 125 130 134 131 124 125 120 113 105 101 106 105 108
190 188 187 187 185 184 177 179 180 181 178 173 175 172 167 157 166 177 171 169 160 158 167 164 159 158 153 145 138 139 145 128 130 126 107 108 124 124 118 117 123 107 99
192 190 189 185 183 181 179 179 180 175 178 178 173 174 174 178 177 171 170 169 170 169 164 165 169 164 162 160 152 144 139 140 139 134 124 123 127 121 121 123 120 114 122